Time,TemperatureF,DewpointF,PressureIn,WindDirection,WindDirectionDegrees,WindSpeedMPH,WindSpeedGustMPH,Humidity,HourlyPrecipIn,Conditions,Clouds,dailyrainin,SolarRadiationWatts/m^2,SoftwareType,DateUTC
2013-07-05 00:01:00,73.0,73.0,-100.00,SE,139,3.0,9.0,100,0.00,,,3.87,0.000000,,2013-07-05 05:01:00,
2013-07-05 00:12:00,73.0,73.0,-100.00,SE,139,3.0,9.0,100,0.00,,,3.87,0.000000,,2013-07-05 05:12:00,
2013-07-05 00:43:00,73.0,73.0,-100.00,SE,126,4.0,7.0,100,0.00,,,3.87,0.000000,,2013-07-05 05:43:00,
2013-07-05 00:52:00,73.0,73.0,-100.00,SE,126,4.0,7.0,100,0.00,,,3.87,0.000000,,2013-07-05 05:52:00,
2013-07-05 01:02:00,73.0,73.0,-100.00,SE,126,4.0,7.0,100,0.00,,,3.87,0.000000,,2013-07-05 06:02:00,
2013-07-05 01:13:00,73.0,73.0,-100.00,SE,126,4.0,7.0,100,0.00,,,3.87,0.000000,,2013-07-05 06:13:00,
2013-07-05 01:44:00,73.0,73.0,-100.00,ESE,122,4.0,7.0,100,0.07,,,3.94,0.000000,,2013-07-05 06:44:00,
2013-07-05 01:53:00,73.0,73.0,-100.00,ESE,122,4.0,7.0,100,0.07,,,3.94,0.000000,,2013-07-05 06:53:00,
2013-07-05 02:02:00,73.0,73.0,-100.00,ESE,122,4.0,7.0,100,0.07,,,3.94,0.000000,,2013-07-05 07:02:00,
2013-07-05 02:12:00,73.0,73.0,-100.00,ESE,122,4.0,7.0,100,0.07,,,3.94,0.000000,,2013-07-05 07:12:00,
2013-07-05 02:43:00,72.0,72.0,-100.00,SE,126,3.0,5.0,100,0.01,,,3.90,0.000000,,2013-07-05 07:43:00,
2013-07-05 02:53:00,72.0,72.0,-100.00,SE,126,3.0,5.0,100,0.01,,,3.90,0.000000,,2013-07-05 07:53:00,
2013-07-05 03:03:00,72.0,72.0,-100.00,SE,126,3.0,5.0,100,0.01,,,3.90,0.000000,,2013-07-05 08:03:00,
2013-07-05 03:12:00,72.0,72.0,-100.00,SE,126,3.0,5.0,100,0.01,,,3.90,0.000000,,2013-07-05 08:12:00,
2013-07-05 03:16:00,72.0,72.0,-100.00,ESE,112,3.0,7.0,100,0.01,,,3.89,0.000000,,2013-07-05 08:16:00,
2013-07-05 03:44:00,72.0,72.0,-100.00,ESE,112,3.0,7.0,100,0.01,,,3.89,0.000000,,2013-07-05 08:44:00,
2013-07-05 03:57:00,72.0,72.0,-100.00,ESE,112,3.0,7.0,100,0.01,,,3.89,0.000000,,2013-07-05 08:57:00,
2013-07-05 04:08:00,72.0,72.0,-100.00,ESE,112,3.0,7.0,100,0.01,,,3.89,0.000000,,2013-07-05 09:08:00,
2013-07-05 04:16:00,72.0,72.0,-100.00,ESE,110,3.0,9.0,100,0.02,,,-99.99,0.000000,,2013-07-05 09:16:00,
2013-07-05 04:48:00,72.0,72.0,-100.00,ESE,110,3.0,9.0,100,0.02,,,-99.99,0.000000,,2013-07-05 09:48:00,
2013-07-05 04:57:00,72.0,72.0,-100.00,ESE,110,3.0,9.0,100,0.02,,,-99.99,0.000000,,2013-07-05 09:57:00,
2013-07-05 05:08:00,72.0,72.0,-100.00,ESE,110,3.0,9.0,100,0.02,,,-99.99,0.000000,,2013-07-05 10:08:00,
2013-07-05 05:16:00,72.0,72.0,-100.00,ESE,118,4.0,9.0,100,0.01,,,2.98,0.000000,,2013-07-05 10:16:00,
2013-07-05 05:47:00,72.0,72.0,-100.00,ESE,118,4.0,9.0,100,0.01,,,2.98,0.000000,,2013-07-05 10:47:00,
2013-07-05 05:58:00,72.0,72.0,-100.00,ESE,118,4.0,9.0,100,0.01,,,2.98,0.000000,,2013-07-05 10:58:00,
2013-07-05 06:09:00,72.0,72.0,-100.00,ESE,118,4.0,9.0,100,0.01,,,2.98,0.000000,,2013-07-05 11:09:00,
2013-07-05 06:16:00,71.0,71.0,-100.00,SE,124,4.0,10.0,100,0.05,,,1.98,1.000000,,2013-07-05 11:16:00,
2013-07-05 06:51:00,71.0,71.0,-100.00,SE,124,4.0,10.0,100,0.05,,,1.98,1.000000,,2013-07-05 11:51:00,
2013-07-05 07:00:00,71.0,71.0,-100.00,SE,124,4.0,10.0,100,0.05,,,1.98,1.000000,,2013-07-05 12:00:00,
2013-07-05 07:09:00,71.0,71.0,-100.00,SE,124,4.0,10.0,100,0.05,,,1.98,1.000000,,2013-07-05 12:09:00,
2013-07-05 08:00:00,71.0,71.0,-100.00,ESE,121,3.0,9.0,100,0.03,,,1.03,24.000000,,2013-07-05 13:00:00,
2013-07-05 08:07:00,71.0,71.0,-100.00,ESE,121,3.0,9.0,100,0.03,,,1.03,24.000000,,2013-07-05 13:07:00,
2013-07-05 08:13:00,71.0,71.0,-100.00,ESE,121,3.0,9.0,100,0.03,,,1.03,24.000000,,2013-07-05 13:13:00,
2013-07-05 08:16:00,73.0,73.0,-100.00,ESE,110,5.0,9.0,100,0.00,,,0.53,95.000000,,2013-07-05 13:16:00,
2013-07-05 08:50:00,73.0,73.0,-100.00,ESE,110,5.0,9.0,100,0.00,,,0.53,95.000000,,2013-07-05 13:50:00,
2013-07-05 08:58:00,73.0,73.0,-100.00,ESE,110,5.0,9.0,100,0.00,,,0.53,95.000000,,2013-07-05 13:58:00,
2013-07-05 09:07:00,73.0,73.0,-100.00,ESE,110,5.0,9.0,100,0.00,,,0.53,95.000000,,2013-07-05 14:07:00,
2013-07-05 09:47:00,74.0,74.0,-100.00,SE,138,6.0,14.0,100,0.00,,,0.37,117.000000,,2013-07-05 14:47:00,
2013-07-05 09:58:00,74.0,74.0,-100.00,SE,138,6.0,14.0,100,0.00,,,0.37,117.000000,,2013-07-05 14:58:00,
2013-07-05 10:07:00,74.0,74.0,-100.00,SE,138,6.0,14.0,100,0.00,,,0.37,117.000000,,2013-07-05 15:07:00,
2013-07-05 10:43:00,75.0,75.0,-100.00,ESE,122,6.0,14.0,100,0.00,,,0.35,182.000000,,2013-07-05 15:43:00,
2013-07-05 11:02:00,75.0,75.0,-100.00,ESE,122,6.0,14.0,100,0.00,,,0.35,182.000000,,2013-07-05 16:02:00,
2013-07-05 11:11:00,75.0,75.0,-100.00,ESE,122,6.0,14.0,100,0.00,,,0.35,182.000000,,2013-07-05 16:11:00,
2013-07-05 11:53:00,75.0,75.0,-100.00,SE,126,5.0,10.0,100,0.00,,,0.29,169.000000,,2013-07-05 16:53:00,
2013-07-05 12:02:00,75.0,75.0,-100.00,SE,126,5.0,10.0,100,0.00,,,0.29,169.000000,,2013-07-05 17:02:00,
2013-07-05 12:12:00,75.0,75.0,-100.00,SE,126,5.0,10.0,100,0.00,,,0.29,169.000000,,2013-07-05 17:12:00,
2013-07-05 12:53:00,74.0,74.0,-100.00,ESE,123,4.0,14.0,100,0.01,,,0.22,147.000000,,2013-07-05 17:53:00,
2013-07-05 13:02:00,74.0,74.0,-100.00,ESE,123,4.0,14.0,100,0.01,,,0.22,147.000000,,2013-07-05 18:02:00,
2013-07-05 13:11:00,74.0,74.0,-100.00,ESE,123,4.0,14.0,100,0.01,,,0.22,147.000000,,2013-07-05 18:11:00,
2013-07-05 13:43:00,75.0,75.0,-100.00,SE,138,3.0,8.0,100,0.01,,,0.22,150.000000,,2013-07-05 18:43:00,
2013-07-05 13:53:00,75.0,75.0,-100.00,SE,138,3.0,8.0,100,0.01,,,0.22,150.000000,,2013-07-05 18:53:00,
2013-07-05 14:02:00,75.0,75.0,-100.00,SE,138,3.0,8.0,100,0.01,,,0.22,150.000000,,2013-07-05 19:02:00,
2013-07-05 14:12:00,75.0,75.0,-100.00,SE,138,3.0,8.0,100,0.01,,,0.22,150.000000,,2013-07-05 19:12:00,
2013-07-05 14:53:00,72.0,72.0,-100.00,ESE,113,4.0,10.0,100,0.92,,,1.14,40.000000,,2013-07-05 19:53:00,
2013-07-05 15:02:00,72.0,72.0,-100.00,ESE,113,4.0,10.0,100,0.92,,,1.14,40.000000,,2013-07-05 20:02:00,
2013-07-05 15:11:00,72.0,72.0,-100.00,ESE,113,4.0,10.0,100,0.92,,,1.14,40.000000,,2013-07-05 20:11:00,
2013-07-05 15:43:00,72.0,72.0,-100.00,East,88,0.0,9.0,100,0.37,,,1.51,25.000000,,2013-07-05 20:43:00,
2013-07-05 15:53:00,72.0,72.0,-100.00,East,88,0.0,9.0,100,0.37,,,1.51,25.000000,,2013-07-05 20:53:00,
2013-07-05 16:01:00,72.0,72.0,-100.00,East,88,0.0,9.0,100,0.37,,,1.51,25.000000,,2013-07-05 21:01:00,
2013-07-05 16:12:00,72.0,72.0,-100.00,East,88,0.0,9.0,100,0.37,,,1.51,25.000000,,2013-07-05 21:12:00,
2013-07-05 16:43:00,73.0,73.0,-100.00,ESE,114,3.0,6.0,100,0.16,,,-99.99,48.000000,,2013-07-05 21:43:00,
2013-07-05 16:53:00,73.0,73.0,-100.00,ESE,114,3.0,6.0,100,0.16,,,-99.99,48.000000,,2013-07-05 21:53:00,
2013-07-05 17:02:00,73.0,73.0,-100.00,ESE,114,3.0,6.0,100,0.16,,,-99.99,48.000000,,2013-07-05 22:02:00,
2013-07-05 17:11:00,73.0,73.0,-100.00,ESE,114,3.0,6.0,100,0.16,,,-99.99,48.000000,,2013-07-05 22:11:00,
2013-07-05 17:43:00,72.0,72.0,-100.00,SSE,148,4.0,12.0,100,0.07,,,1.74,73.000000,,2013-07-05 22:43:00,
2013-07-05 17:53:00,72.0,72.0,-100.00,SSE,148,4.0,12.0,100,0.07,,,1.74,73.000000,,2013-07-05 22:53:00,
2013-07-05 18:02:00,72.0,72.0,-100.00,SSE,148,4.0,12.0,100,0.07,,,1.74,73.000000,,2013-07-05 23:02:00,
2013-07-05 18:11:00,72.0,72.0,-100.00,SSE,148,4.0,12.0,100,0.07,,,1.74,73.000000,,2013-07-05 23:11:00,
2013-07-05 18:43:00,71.0,71.0,-100.00,SSE,165,4.0,11.0,100,0.00,,,1.74,110.000000,,2013-07-05 23:43:00,
2013-07-05 18:53:00,71.0,71.0,-100.00,SSE,165,4.0,11.0,100,0.00,,,1.74,110.000000,,2013-07-05 23:53:00,
2013-07-05 19:02:00,71.0,71.0,-100.00,SSE,165,4.0,11.0,100,0.00,,,1.74,110.000000,,2013-07-06 00:02:00,
2013-07-05 19:12:00,71.0,71.0,-100.00,SSE,165,4.0,11.0,100,0.00,,,1.74,110.000000,,2013-07-06 00:12:00,
2013-07-05 19:43:00,70.0,70.0,-100.00,South,190,2.0,11.0,100,0.00,,,-99.99,27.000000,,2013-07-06 00:43:00,
2013-07-05 19:53:00,70.0,70.0,-100.00,South,190,2.0,11.0,100,0.00,,,-99.99,27.000000,,2013-07-06 00:53:00,
2013-07-05 20:02:00,70.0,70.0,-100.00,South,190,2.0,11.0,100,0.00,,,-99.99,27.000000,,2013-07-06 01:02:00,
2013-07-05 20:12:00,70.0,70.0,-100.00,South,190,2.0,11.0,100,0.00,,,-99.99,27.000000,,2013-07-06 01:12:00,
2013-07-05 20:43:00,70.0,70.0,-100.00,ENE,72,0.0,5.0,100,0.01,,,1.75,4.000000,,2013-07-06 01:43:00,
2013-07-05 20:53:00,70.0,70.0,-100.00,ENE,72,0.0,5.0,100,0.01,,,1.75,4.000000,,2013-07-06 01:53:00,
2013-07-05 21:02:00,70.0,70.0,-100.00,ENE,72,0.0,5.0,100,0.01,,,1.75,4.000000,,2013-07-06 02:02:00,
2013-07-05 21:12:00,70.0,70.0,-100.00,ENE,72,0.0,5.0,100,0.01,,,1.75,4.000000,,2013-07-06 02:12:00,
2013-07-05 21:43:00,70.0,70.0,-100.00,ESE,104,4.0,6.0,100,0.00,,,1.75,0.000000,,2013-07-06 02:43:00,
2013-07-05 21:53:00,70.0,70.0,-100.00,ESE,104,4.0,6.0,100,0.00,,,1.75,0.000000,,2013-07-06 02:53:00,
2013-07-05 22:02:00,70.0,70.0,-100.00,ESE,104,4.0,6.0,100,0.00,,,1.75,0.000000,,2013-07-06 03:02:00,
2013-07-05 22:12:00,70.0,70.0,-100.00,ESE,104,4.0,6.0,100,0.00,,,1.75,0.000000,,2013-07-06 03:12:00,
2013-07-05 22:43:00,69.0,69.0,-100.00,ESE,118,3.0,8.0,100,0.00,,,1.75,0.000000,,2013-07-06 03:43:00,
2013-07-05 22:53:00,69.0,69.0,-100.00,ESE,118,3.0,8.0,100,0.00,,,1.75,0.000000,,2013-07-06 03:53:00,
2013-07-05 23:02:00,69.0,69.0,-100.00,ESE,118,3.0,8.0,100,0.00,,,1.75,0.000000,,2013-07-06 04:02:00,
2013-07-05 23:12:00,69.0,69.0,-100.00,ESE,118,3.0,8.0,100,0.00,,,1.75,0.000000,,2013-07-06 04:12:00,
2013-07-05 23:43:00,69.0,69.0,-100.00,East,100,2.0,5.0,100,0.00,,,1.75,0.000000,,2013-07-06 04:43:00,
2013-07-05 23:53:00,69.0,69.0,-100.00,East,100,2.0,5.0,100,0.00,,,1.75,0.000000,,2013-07-06 04:53:00,